Regional Weather Roundup
Issued by NWS

Home | Current Version | Previous Version | Graphics & Text | Print | Product List | Glossary Off
Versions: 1 2 3 4 5 6 7 8 9 10 11 12 13 14 15 16 17 18 19 20 21 22 23 24 25 26 27 28 29 30 31 32 33 34 35 36 37 38 39 40 41 42 43 44 45 46 47 48 49 50

000
ASUS43 KTOP 310508
RWRKS

WEATHER ROUNDUP FOR KANSAS
NATIONAL WEATHER SERVICE GOODLAND KS
1200 AM CDT WED AUG 31 2016

NOTE:  "FAIR" INDICATES FEW OR NO CLOUDS BELOW 12,000 FEET WITH NO
SIGNIFICANT WEATHER AND/OR OBSTRUCTIONS TO VISIBILITY.

KSZ001>006-013>018-027>032-041>047-310600-
NORTHWEST KANSAS

CITY           SKY/WX    TMP DP  RH WIND       PRES   REMARKS
GOODLAND       PTCLDY    62  60  93 SE5       30.24S
HAYS           CLOUDY    70  61  73 CALM      30.17S
HILL CITY      CLOUDY    67  65  93 CALM      30.20S
RUSSELL        CLOUDY    69  68  96 E5        30.15F
$$

KSZ061>065-074>080-084>089-310600-
SOUTHWEST KANSAS

CITY           SKY/WX    TMP DP  RH WIND       PRES   REMARKS
DODGE CITY     CLOUDY    68  66  93 NE5       30.20R
ELKHART          N/A     65  60  84 S5          N/A
GARDEN CITY    MOCLDY    67  64  90 E3        30.20F
GREAT BEND     CLOUDY    70  61  73 N7        30.17S
LIBERAL        CLOUDY    66  63  88 CALM      30.22S
PRATT          MOCLDY    65  63  92 E5        30.18R
$$

KSZ066>073-081>083-090>101-310600-
SOUTHEAST KANSAS

CITY           SKY/WX    TMP DP  RH WIND       PRES   REMARKS
CHANUTE        LGT RAIN  73  70  90 NW7       30.15R
COFFEYVILLE    CLOUDY    73  70  90 N14       30.10F
HUTCHINSON     PTCLDY    70  68  93 W3        30.15S
MEDICINE LODGE   N/A     69  66  90 N5        30.15R
NEWTON         MOCLDY    69  69 100 CALM      30.15
PARSONS        RAIN      71  69  93 N9        30.13F
WICHITA INTL   CLOUDY    72  68  87 E8        30.14R
WICHITA JABRA  PTCLDY    69  69 100 E6        30.14S
WICHITA MCCONL CLOUDY    71  67  89 E8        30.13S
WINFIELD       LGT RAIN  72  70  93 N6        30.14R
$$

KSZ007>012-019>026-033>040-048>060-102>105-310600-
NORTHEAST KANSAS

CITY           SKY/WX    TMP DP  RH WIND       PRES   REMARKS
CONCORDIA      MOCLDY    70  69  97 CALM      30.18R
EMPORIA        RAIN      68  66  93 CALM      30.13F
LAWRENCE       LGT RAIN  74  73  97 CALM      30.13S FOG
MANHATTAN      CLOUDY    74  71  91 N5        30.15R
MARYSVILLE     CLOUDY    70  70 100 N5        30.16F
OLATHE IND     CLOUDY    72  71  97 N5        30.14R
OLATHE EXE     CLOUDY    72  71  97 CALM      30.13R
SALINA         CLOUDY    73  71  93 NW5       30.17R
TOPEKA BILLARD LGT RAIN  76  72  87 NE6       30.13R
TOPEKA FORBES  LGT RAIN  76  73  91 N5        30.13S
$$




USA.gov is the U.S. government's official web portal to all federal, state and local government web resources and services.